CW5391 Weather Reports


Display with metric or nautical units.
time (UTC)temp
F
wind
direction
speed
MPH
gust
MPH
rain 1hr
in
rain 24hr
in
rain mn
in
humidity
%
barometer
mb
20260905010328 65 332 1.0 7.0 0.00 0.00 0.00 87 1007.9
20260905005815 65 360 1.0 7.0 0.00 0.00 0.00 86 1007.8
20260905005321 65 355 0.0 3.0 0.00 0.00 0.00 87 1007.8
20260905004847 66 47 0.0 0.0 0.00 0.00 0.00 87 1007.8
20260905004331 66 47 0.0 0.0 0.00 0.00 0.00 86 1007.7
20260905003836 66 47 0.0 1.0 0.00 0.00 0.00 86 1007.7
20260905003317 66 47 0.0 1.0 0.00 0.00 0.00 85 1007.7
20260905002856 66 47 0.0 0.0 0.00 0.00 0.00 85 1007.5
20260905002327 66 47 0.0 0.0 0.00 0.00 0.00 83 1007.5
20260905001831 66 47 0.0 0.0 0.00 0.00 0.00 83 1007.5
20260905001315 67 47 0.0 2.0 0.00 0.00 0.00 83 1007.5
20260905000827 67 47 1.0 2.0 0.00 0.00 0.00 82 1007.5
20260905000313 67 47 1.0 2.0 0.00 0.00 0.00 83 1007.5
20260904235819 67 113 0.0 2.0 0.00 0.00 0.00 84 1007.4
20260904235345 67 113 0.0 1.0 0.00 0.00 0.00 83 1007.4
20260904234831 67 113 0.0 1.0 0.00 0.00 0.00 82 1007.4
20260904234316 68 113 0.0 1.0 0.00 0.00 0.00 83 1007.1
20260904233820 68 113 0.0 1.0 0.00 0.00 0.00 81 1007.1
20260904233346 68 113 0.0 1.0 0.00 0.00 0.00 81 1007.1
20260904232828 68 113 0.0 0.0 0.00 0.00 0.00 81 1007.2
20260904232335 69 113 0.0 1.0 0.00 0.00 0.00 80 1007.2
20260904231812 69 113 0.0 2.0 0.00 0.00 0.00 79 1007.2
20260904231332 69 113 1.0 2.0 0.00 0.00 0.00 78 1007.0
20260904230825 69 113 1.0 2.0 0.00 0.00 0.00 79 1007.0
20260904230318 69 56 1.0 2.0 0.00 0.00 0.00 79 1007.0
20260904225824 69 56 1.0 2.0 0.00 0.00 0.00 79 1007.0
20260904225325 70 269 0.0 2.0 0.00 0.00 0.00 79 1007.0
20260904224849 70 269 0.0 1.0 0.00 0.00 0.00 79 1007.0
20260904224333 70 269 0.0 2.0 0.00 0.00 0.00 80 1006.9
20260904223848 70 269 0.0 2.0 0.00 0.00 0.00 79 1006.9
20260904223335 70 87 0.0 3.0 0.00 0.00 0.00 78 1006.9
20260904222820 70 336 1.0 3.0 0.00 0.00 0.00 77 1006.9
20260904222324 71 46 1.0 3.0 0.00 0.00 0.00 78 1006.9
20260904221818 71 111 0.0 1.0 0.00 0.00 0.00 79 1006.9
20260904221325 71 111 1.0 4.0 0.00 0.00 0.00 78 1006.9
20260904220829 72 111 1.0 3.0 0.00 0.00 0.00 77 1006.9
20260904220320 72 44 1.0 4.0 0.00 0.00 0.00 76 1006.9
20260904215836 72 24 1.0 4.0 0.00 0.00 0.00 74 1006.9
20260904215326 72 15 1.0 3.0 0.00 0.00 0.00 73 1006.9
20260904214830 73 28 1.0 3.0 0.00 0.00 0.00 75 1006.9
20260904214338 73 14 1.0 3.0 0.00 0.00 0.00 76 1006.8
20260904213821 73 67 1.0 3.0 0.00 0.00 0.00 71 1006.8
20260904213348 74 336 1.0 8.0 0.00 0.00 0.00 75 1006.8
20260904212813 74 343 1.0 8.0 0.00 0.00 0.00 75 1007.0
20260904212312 74 343 2.0 8.0 0.00 0.00 0.00 74 1007.0
20260904211816 75 13 2.0 5.0 0.00 0.00 0.00 75 1007.0
20260904211323 75 11 1.0 5.0 0.00 0.00 0.00 74 1007.1
20260904210813 75 313 1.0 3.0 0.00 0.00 0.00 72 1007.1
20260904210347 75 313 1.0 4.0 0.00 0.00 0.00 71 1007.1
20260904205812 75 63 2.0 7.0 0.00 0.00 0.00 72 1007.0
20260904205312 75 331 3.0 6.0 0.00 0.00 0.00 68 1007.0
20260904204816 75 355 2.0 6.0 0.00 0.00 0.00 73 1007.0
20260904204327 75 344 2.0 6.0 0.00 0.00 0.00 71 1006.9
20260904203832 74 334 2.0 6.0 0.00 0.00 0.00 68 1006.9
20260904203338 74 327 2.0 6.0 0.00 0.00 0.00 71 1006.9
20260904202834 75 344 4.0 8.0 0.00 0.00 0.00 69 1006.9
20260904202314 75 291 4.0 8.0 0.00 0.00 0.00 69 1006.9
20260904201827 75 302 4.0 8.0 0.00 0.00 0.00 67 1006.9
20260904201332 76 355 3.0 8.0 0.00 0.00 0.00 64 1006.9
20260904200827 76 348 2.0 10.0 0.00 0.00 0.00 66 1006.9
20260904200332 76 336 2.0 10.0 0.00 0.00 0.00 65 1006.9
20260904195822 76 11 3.0 10.0 0.00 0.00 0.00 70 1006.9
20260904195327 76 22 3.0 5.0 0.00 0.00 0.00 69 1006.9
20260904194825 75 15 2.0 4.0 0.00 0.00 0.00 67 1006.9
20260904194352 75 9 2.0 9.0 0.00 0.00 0.00 67 1007.0
20260904193828 76 25 3.0 9.0 0.00 0.00 0.00 63 1007.0
20260904193319 76 317 3.0 9.0 0.00 0.00 0.00 66 1007.0
20260904192828 76 38 3.0 7.0 0.00 0.00 0.00 65 1007.3
20260904192340 76 329 3.0 7.0 0.00 0.00 0.00 63 1007.3
20260904191839 77 299 3.0 9.0 0.00 0.00 0.00 65 1007.3
20260904191327 77 351 3.0 9.0 0.00 0.00 0.00 63 1007.2
20260904190826 77 261 2.0 6.0 0.00 0.00 0.00 64 1007.2
20260904190318 77 298 2.0 6.0 0.00 0.00 0.00 62 1007.2
20260904185822 78 19 3.0 8.0 0.00 0.00 0.00 62 1007.4
20260904185336 79 351 2.0 8.0 0.00 0.00 0.00 63 1007.4
20260904184815 79 340 4.0 8.0 0.00 0.00 0.00 59 1007.4
20260904184321 80 313 3.0 8.0 0.00 0.00 0.00 60 1007.4
20260904183819 80 300 3.0 8.0 0.00 0.00 0.00 61 1007.4
20260904183320 80 360 2.0 5.0 0.00 0.00 0.00 60 1007.4
20260904182841 80 355 2.0 5.0 0.00 0.00 0.00 60 1007.4
20260904182321 80 28 2.0 5.0 0.00 0.00 0.00 59 1007.4
20260904181826 80 75 2.0 5.0 0.00 0.00 0.00 65 1007.4
20260904181333 79 351 3.0 0.0 0.00 0.00 0.00 64 1007.2
20260904180813 79 319 3.0 6.0 0.00 0.00 0.00 61 1007.4
20260904180322 79 288 2.0 5.0 0.00 0.00 0.00 60 1007.4
20260904175818 79 331 2.0 5.0 0.00 0.00 0.00 61 1007.4
20260904175319 79 350 2.0 4.0 0.00 0.00 0.00 59 1007.4
20260904174828 79 278 1.0 6.0 0.00 0.00 0.00 62 1007.4
20260904174336 80 148 3.0 6.0 0.00 0.00 0.00 63 1007.4
20260904173824 79 339 2.0 6.0 0.00 0.00 0.00 68 1007.4
20260904173335 78 180 1.0 7.0 0.00 0.00 0.00 67 1007.4
20260904172825 77 348 2.0 7.0 0.00 0.00 0.00 64 1007.4
20260904172325 77 32 3.0 6.0 0.00 0.00 0.00 68 1007.4
20260904171813 78 10 3.0 6.0 0.00 0.00 0.00 64 1007.4
20260904171322 78 355 3.0 6.0 0.00 0.00 0.00 62 1007.4
20260904170831 79 325 3.0 6.0 0.00 0.00 0.00 64 1007.4
20260904170311 79 52 3.0 8.0 0.00 0.00 0.00 59 1007.4
20260904165826 80 321 2.0 8.0 0.00 0.00 0.00 63 1007.7
20260904165331 80 120 3.0 8.0 0.00 0.00 0.00 63 1007.7
20260904164836 79 43 2.0 6.0 0.00 0.00 0.00 66 1007.7
20260904164352 79 226 2.0 6.0 0.00 0.00 0.00 63 1007.8
20260904163840 79 355 2.0 8.0 0.00 0.00 0.00 67 1007.8
20260904163329 78 205 3.0 7.0 0.00 0.00 0.00 67 1007.8
20260904162826 78 360 2.0 6.0 0.00 0.00 0.00 69 1008.0
20260904162335 77 233 3.0 5.0 0.00 0.00 0.00 67 1008.0
20260904161827 77 313 1.0 6.0 0.00 0.00 0.00 71 1008.0
20260904161315 76 355 2.0 6.0 0.00 0.00 0.00 69 1008.3
20260904160826 75 360 2.0 5.0 0.00 0.00 0.00 70 1008.3
20260904160338 75 275 2.0 7.0 0.00 0.00 0.00 70 1008.3
20260904155829 76 11 3.0 7.0 0.00 0.00 0.00 68 1008.4
20260904155329 77 355 4.0 7.0 0.00 0.00 0.00 65 1008.4
20260904154816 78 340 3.0 7.0 0.00 0.00 0.00 68 1008.4
20260904154329 78 350 2.0 6.0 0.00 0.00 0.00 70 1008.5
20260904153832 77 355 2.0 6.0 0.00 0.00 0.00 71 1008.5
20260904153323 77 304 2.0 5.0 0.00 0.00 0.00 73 1008.5
20260904152842 76 346 2.0 4.0 0.00 0.00 0.00 72 1008.5
20260904152314 76 334 2.0 4.0 0.00 0.00 0.00 71 1008.5
20260904151826 77 345 2.0 6.0 0.00 0.00 0.00 70 1008.5
20260904151340 77 163 2.0 6.0 0.00 0.00 0.00 71 1008.5
20260904150845 77 300 2.0 6.0 0.00 0.00 0.00 71 1008.5
20260904150335 77 317 2.0 6.0 0.00 0.00 0.00 75 1008.5
20260904145820 76 46 2.0 5.0 0.00 0.00 0.00 74 1008.5
20260904145330 76 10 2.0 5.0 0.00 0.00 0.00 75 1008.5
20260904144818 76 360 2.0 4.0 0.00 0.00 0.00 76 1008.5
20260904144336 75 338 1.0 5.0 0.00 0.00 0.00 76 1008.4
20260904143830 75 296 1.0 5.0 0.00 0.00 0.00 78 1008.4
20260904143315 74 298 0.0 1.0 0.00 0.00 0.00 80 1008.4
20260904142816 74 75 0.0 3.0 0.00 0.00 0.00 78 1008.5
20260904142327 74 65 1.0 4.0 0.00 0.00 0.00 78 1008.5
20260904141817 73 355 1.0 4.0 0.00 0.00 0.00 79 1008.5
20260904141326 73 25 0.0 3.0 0.00 0.00 0.00 79 1008.5
20260904140830 73 49 0.0 1.0 0.00 0.00 0.00 79 1008.5
20260904140316 73 113 0.0 3.0 0.00 0.00 0.00 82 1008.5
20260904135821 72 113 0.0 3.0 0.00 0.00 0.00 83 1008.5
20260904135334 72 201 0.0 2.0 0.00 0.00 0.00 83 1008.5
20260904134813 71 78 0.0 0.0 0.00 0.00 0.00 84 1008.5
20260904134325 71 119 0.0 2.0 0.00 0.00 0.00 84 1008.4
20260904133815 70 119 0.0 2.0 0.00 0.00 0.00 84 1008.4
20260904133341 70 39 0.0 2.0 0.00 0.00 0.00 86 1008.4
20260904132838 69 39 0.0 2.0 0.00 0.00 0.00 88 1008.4
20260904132314 69 101 0.0 0.0 0.00 0.00 0.00 89 1008.4
20260904131819 68 101 0.0 0.0 0.00 0.00 0.00 89 1008.4
20260904131352 67 101 0.0 1.0 0.00 0.00 0.00 91 1008.5
20260904130837 66 101 0.0 1.0 0.00 0.00 0.00 92 1008.5
20260904130342 66 101 0.0 1.0 0.00 0.00 0.00 93 1008.5
20260904125853 65 101 0.0 1.0 0.00 0.00 0.00 95 1008.5
20260904125325 64 101 0.0 0.0 0.00 0.00 0.00 98 1008.5
20260904124830 64 101 0.0 3.0 0.00 0.00 0.00 98 1008.5
20260904124318 63 101 0.0 3.0 0.00 0.00 0.00 98 1008.7
20260904123831 62 101 0.0 3.0 0.00 0.00 0.00 98 1008.7
20260904123327 62 254 0.0 2.0 0.00 0.00 0.00 98 1008.7
20260904122820 61 121 0.0 2.0 0.00 0.00 0.00 98 1008.7
20260904122324 61 119 0.0 2.0 0.00 0.00 0.00 97 1008.7
20260904121832 61 323 0.0 0.0 0.00 0.00 0.00 97 1008.7
20260904121319 61 323 0.0 0.0 0.00 0.00 0.00 97 1008.6
20260904120850 61 323 0.0 0.0 0.00 0.00 0.00 97 1008.6
20260904120358 60 323 0.0 0.0 0.00 0.00 0.00 97 1008.6
20260904115822 60 323 0.0 0.0 0.00 0.00 0.00 97 1008.5
20260904114858 60 323 0.0 0.0 0.00 0.00 0.00 97 1008.5
20260904114330 60 323 0.0 0.0 0.00 0.00 0.00 97 1008.5
20260904113839 60 323 0.0 0.0 0.00 0.00 0.00 97 1008.5
20260904113326 59 323 0.0 0.0 0.00 0.00 0.00 97 1008.5
20260904112828 59 323 327.0 0.0 0.00 0.00 0.00 96 1008.4
20260904112344 59 323 327.0 0.0 0.00 0.00 0.00 96 1008.4
20260904111817 0 323 327.0 0.0 0.00 0.00 0.00 1008.4
20260904111329 0 0.0 0.0 0.00 0.00 0.00 1008.0
20260904110854 0 0.0 0.0 0.00 0.00 0.00 1008.0
20260904110318 0 0.0 0.0 0.00 0.00 0.00 1008.0
20260904105815 0 0.0 0.0 0.00 0.00 0.00 1007.9
20260904105341 0 0.0 0.0 0.00 0.00 0.00 1007.9
20260904104815 0 0.0 0.0 0.00 0.00 0.00 1007.9
20260904103835 0 0.0 0.0 0.00 0.00 0.00 1007.8
20260904103329 0 0.0 0.0 0.00 0.00 0.00 1007.8
20260904102845 0 0.0 0.0 0.00 0.00 0.00 1007.6
20260904102353 60 323 0.0 0.0 0.00 0.00 0.00 96 1007.6
20260904101830 60 323 0.0 0.0 0.00 0.00 0.00 96 1007.6
20260904101332 60 323 0.0 0.0 0.00 0.00 0.00 96 1007.5
20260904100831 60 323 0.0 0.0 0.00 0.00 0.00 96 1007.5
20260904100320 60 323 0.0 0.0 0.00 0.00 0.00 96 1007.5
20260904095834 60 323 0.0 0.0 0.00 0.00 0.00 96 1007.5
20260904095345 60 323 0.0 1.0 0.00 0.00 0.00 96 1007.5
20260904094838 60 323 0.0 1.0 0.00 0.00 0.00 96 1007.5
20260904094314 59 323 0.0 3.0 0.00 0.00 0.00 96 1007.4
20260904093818 60 323 1.0 3.0 0.00 0.00 0.00 95 1007.4
20260904093343 60 121 1.0 3.0 0.00 0.00 0.00 95 1007.4
20260904092832 60 64 1.0 3.0 0.00 0.00 0.00 95 1007.4
20260904092319 60 304 0.0 2.0 0.00 0.00 0.00 96 1007.4
20260904091814 60 121 0.0 1.0 0.00 0.00 0.00 95 1007.4
20260904091336 60 130 0.0 0.0 0.00 0.00 0.00 95 1007.4
20260904090828 60 165 0.0 0.0 0.00 0.00 0.00 95 1007.4
20260904090332 60 213 0.0 0.0 0.00 0.00 0.00 95 1007.4
20260904085817 60 213 0.0 1.0 0.00 0.00 0.00 95 1007.3
20260904085345 61 192 0.0 1.0 0.00 0.00 0.00 96 1007.3
20260904084820 61 158 0.0 1.0 0.00 0.00 0.00 95 1007.3
20260904084401 61 95 0.0 1.0 0.00 0.00 0.00 95 1007.2
20260904083826 61 132 0.0 0.0 0.00 0.00 0.00 95 1007.2
20260904083320 61 132 0.0 2.0 0.00 0.00 0.00 95 1007.2
20260904082825 61 132 1.0 2.0 0.00 0.00 0.00 96 1007.3
20260904082325 60 138 0.0 2.0 0.00 0.00 0.00 96 1007.3
20260904081813 60 136 0.0 0.0 0.00 0.00 0.00 96 1007.3
20260904081328 60 136 0.0 0.0 0.00 0.00 0.00 96 1007.4
20260904080836 60 250 0.0 0.0 0.00 0.00 0.00 95 1007.4
20260904080318 61 250 0.0 0.0 0.00 0.00 0.00 95 1007.4
20260904075830 61 250 0.0 0.0 0.00 0.00 0.00 95 1007.2
20260904075320 61 186 0.0 0.0 0.00 0.00 0.00 95 1007.2
20260904074844 61 186 327.0 0.0 0.00 0.00 0.00 95 1007.2
20260904074327 61 186 327.0 0.0 0.00 0.00 0.00 95 1007.3
20260904073814 0 0.0 0.0 0.00 0.00 0.00 1007.3
20260904073341 0 0.0 0.0 0.00 0.00 0.00 1007.3
20260904072819 0 0.0 0.0 0.00 0.00 0.00 1007.4
20260904072325 0 0.0 0.0 0.00 0.00 0.00 1007.4
20260904071817 0 0.0 0.0 0.00 0.00 0.00 1007.4
20260904071333 0 0.0 0.0 0.00 0.00 0.00 1007.4
20260904070825 0 0.0 0.0 0.00 0.00 0.00 1007.4
20260904070322 0 0.0 0.0 0.00 0.00 0.00 1007.4
20260904065847 0 0.0 0.0 0.00 0.00 0.00 1007.4
20260904065330 0 0.0 0.0 0.00 0.00 0.00 1007.4
20260904064317 0 0.0 0.0 0.00 0.00 0.00 1007.4
20260904063830 0 0.0 0.0 0.00 0.00 0.00 1007.4
20260904063317 0 0.0 0.0 0.00 0.00 0.00 1007.4
20260904062835 0 0.0 0.0 0.00 0.00 0.00 1007.4
20260904062344 0 0.0 0.0 0.00 0.00 0.00 1007.4
20260904061815 0 0.0 0.0 0.00 0.00 0.00 1007.4
20260904061352 62 126 0.0 2.0 0.00 0.00 0.00 92 1007.5
20260904060829 62 126 0.0 2.0 0.00 0.00 0.00 92 1007.5
20260904060326 62 126 0.0 0.0 0.00 0.00 0.00 92 1007.5
20260904055827 62 126 0.0 0.0 0.00 0.00 0.00 92 1007.8
20260904055339 62 126 0.0 0.0 0.00 0.00 0.00 92 1007.8
20260904054824 63 126 0.0 0.0 0.00 0.00 0.00 92 1007.8
20260904054333 63 126 0.0 0.0 0.00 0.00 0.00 92 1007.8
20260904053843 63 126 0.0 1.0 0.00 0.00 0.00 92 1007.8
20260904053318 63 126 0.0 1.0 0.00 0.00 0.00 93 1007.8
20260904052848 63 126 0.0 1.0 0.00 0.00 0.00 94 1008.1
20260904052338 62 126 0.0 1.0 0.00 0.00 0.00 92 1008.1
20260904051828 62 126 0.0 1.0 0.00 0.00 0.00 92 1008.1
20260904051336 63 126 0.0 1.0 0.00 0.00 0.00 91 1008.3
20260904050821 63 126 0.0 1.0 0.00 0.00 0.00 91 1008.3
20260904050348 63 126 0.0 0.0 0.00 0.00 0.00 91 1008.3
20260904045813 63 126 0.0 0.0 0.00 0.00 0.00 90 1008.4
20260904045353 63 126 0.0 0.0 0.00 0.00 0.00 90 1008.4
20260904044838 63 126 0.0 2.0 0.00 0.00 0.00 90 1008.4
20260904044343 63 126 1.0 2.0 0.00 0.00 0.00 90 1008.5
20260904043829 63 126 0.0 1.0 0.00 0.00 0.00 90 1008.5
20260904043356 63 126 0.0 0.0 0.00 0.00 0.00 89 1008.5
20260904042827 64 126 0.0 2.0 0.00 0.00 0.00 89 1008.4
20260904042354 64 126 0.0 2.0 0.00 0.00 0.00 88 1008.4
20260904041831 64 126 0.0 2.0 0.00 0.00 0.00 88 1008.4
20260904041320 64 88 0.0 1.0 0.00 0.00 0.00 89 1008.4
20260904040846 64 88 0.0 0.0 0.00 0.00 0.00 88 1008.4
20260904040326 64 88 0.0 0.0 0.00 0.00 0.00 87 1008.4
20260904035817 64 88 0.0 0.0 0.00 0.00 0.00 87 1008.4
20260904035317 65 88 0.0 0.0 0.00 0.00 0.00 87 1008.4
20260904034847 65 88 0.0 1.0 0.00 0.00 0.00 86 1008.4
20260904034349 65 88 0.0 1.0 0.00 0.00 0.00 87 1008.4
20260904033826 65 88 0.0 1.0 0.00 0.00 0.00 86 1008.4
20260904033315 66 88 0.0 0.0 0.00 0.00 0.00 85 1008.4
20260904032820 66 88 0.0 0.0 0.00 0.00 0.00 85 1008.6
20260904032327 66 88 0.0 0.0 0.00 0.00 0.00 84 1008.6
20260904031900 67 88 0.0 0.0 0.00 0.00 0.00 84 1008.6
20260904031332 67 88 0.0 2.0 0.00 0.00 0.00 84 1008.8
20260904030812 67 88 0.0 2.0 0.00 0.00 0.00 83 1008.8
20260904030323 68 88 0.0 2.0 0.00 0.00 0.00 82 1008.8
20260904025835 68 88 1.0 2.0 0.00 0.00 0.00 81 1008.9
20260904025329 68 120 0.0 1.0 0.00 0.00 0.00 82 1008.9
20260904024824 68 120 0.0 1.0 0.00 0.00 0.00 81 1008.9
20260904024339 68 120 1.0 2.0 0.00 0.00 0.00 81 1009.0
20260904023819 68 120 1.0 2.0 0.00 0.00 0.00 81 1009.0
20260904023334 68 120 1.0 3.0 0.00 0.00 0.00 80 1009.0
20260904022841 69 120 1.0 3.0 0.00 0.00 0.00 81 1008.9
20260904022341 69 255 1.0 4.0 0.00 0.00 0.00 80 1008.9
20260904021829 69 117 1.0 4.0 0.00 0.00 0.00 77 1008.9
20260904021316 69 319 1.0 7.0 0.00 0.00 0.00 79 1009.0
20260904020829 69 71 2.0 7.0 0.00 0.00 0.00 77 1009.0
20260904020328 69 98 1.0 3.0 0.00 0.00 0.00 80 1009.0
20260904015819 69 69 2.0 4.0 0.00 0.00 0.00 80 1008.9
20260904015345 69 69 2.0 4.0 0.00 0.00 0.00 81 1008.9
20260904014839 69 108 327.0 4.0 0.00 0.00 0.00 1008.9
20260904014328 0 93 327.0 2.0 0.00 0.00 0.00 1008.8
20260904013831 0 0.0 0.0 0.00 0.00 0.00 1008.8
20260904013315 0 0.0 0.0 0.00 0.00 0.00 1008.8
20260904012819 0 0.0 0.0 0.00 0.00 0.00 1008.9
20260904012333 0 0.0 0.0 0.00 0.00 0.00 1008.9
20260904011842 0 0.0 0.0 0.00 0.00 0.00 1008.9
20260904011344 0 0.0 0.0 0.00 0.00 0.00 1008.9
20260904010826 0 0.0 0.0 0.00 0.00 0.00 1008.9